Taos, NM

10:24 PM MST on December 03, 2016 (GMT -0700)
Taos Municipal

Weather History for KSKX - August, 2014

Change the Weather History Date:

Friday, August 15, 2014

  Actual Average Record
Temperature  
Mean Temperature 66 °F -  
Max Temperature 80 °F 79 °F 89 °F (2002)
Min Temperature 51 °F 47 °F 41 °F (1997)
Growing Degree Days 16 (Base 50)    
Moisture  
Dew Point 46 °F    
Average Humidity 55    
Maximum Humidity 82    
Minimum Humidity 21    
Precipitation  
Precipitation 0.03 in - - ()
Sea Level Pressure  
Sea Level Pressure 30.30 in    
Wind  
Wind Speed 4 mph (NE)    
Max Wind Speed 13 mph    
Max Gust Speed -    
Visibility 10 miles    
Events Thunderstorm    
Averages and records for this station are not official NWS values.
T = Trace of Precipitation, MM = Missing Value Source: NWS Daily Summary

Daily Weather History Graph

Daily Weather History Graph

Search for Another Location

Airport or City:

Trip Planner

Search our weather history database for the weather conditions in past years. The results will help you decide how hot, cold, wet, or windy it might be!

Date:

Astronomy

Aug. 15, 2014 Rise Set
Actual Time 6:20 AM MDT 7:53 PM MDT
Civil Twilight 5:53 AM MDT 8:20 PM MDT
Nautical Twilight 5:20 AM MDT 8:53 PM MDT
Astronomical Twilight 4:45 AM MDT 9:27 PM MDT
Moon 11:08 PM MDT (8/15) 11:55 AM MDT (8/15)
Length of Visible Light 14h 27m
Length of Day
13h 32m
Waning Gibbous, 68% of the Moon is Illuminated
Aug 15
Waning Gibbous
Aug 17
Last Quarter
Aug 25
New
Sep 2
First Quarter
Sep 8
Full

Hourly Weather History & Observations

Time (MDT) Temp. Dew Point Humidity Pressure Visibility Wind Dir Wind Speed Gust Speed Precip Events Conditions
12:15 AM 60.8 °F 55.4 °F 82% 30.29 in - Calm Calm - N/A   Overcast
12:35 AM 60.8 °F 53.6 °F 77% 30.29 in - East 4.6 mph - N/A   Mostly Cloudy
12:55 AM 60.8 °F 53.6 °F 77% 30.30 in - Calm Calm - N/A   Mostly Cloudy
1:15 AM 59.0 °F 51.8 °F 77% 30.29 in - ENE 3.5 mph - N/A   Overcast
1:35 AM 57.2 °F 51.8 °F 82% 30.29 in - ENE 3.5 mph - N/A   Scattered Clouds
1:55 AM 57.2 °F 51.8 °F 82% 30.29 in - ENE 4.6 mph - N/A   Clear
2:15 AM 57.2 °F 51.8 °F 82% 30.29 in - ENE 4.6 mph - N/A   Clear
2:35 AM 57.2 °F 48.2 °F 72% 30.29 in - ENE 5.8 mph - N/A   Clear
2:55 AM 55.4 °F 48.2 °F 77% 30.29 in - NNE 4.6 mph - N/A   Clear
3:15 AM 53.6 °F 48.2 °F 82% 30.29 in - North 4.6 mph - N/A   Clear
3:35 AM 53.6 °F 46.4 °F 77% 30.29 in - North 3.5 mph - N/A   Clear
3:55 AM 55.4 °F 48.2 °F 77% 30.29 in - North 4.6 mph - N/A   Clear
4:15 AM 53.6 °F 46.4 °F 77% 30.29 in - North 5.8 mph - N/A   Clear
4:35 AM 51.8 °F 46.4 °F 82% 30.29 in - North 5.8 mph - N/A   Clear
4:55 AM 53.6 °F 46.4 °F 77% 30.29 in - North 5.8 mph - N/A   Clear
5:15 AM 51.8 °F 46.4 °F 82% 30.29 in - North 5.8 mph - N/A   Clear
5:35 AM 51.8 °F 46.4 °F 82% 30.29 in - North 5.8 mph - N/A   Clear
5:55 AM 51.8 °F 46.4 °F 82% 30.30 in - North 3.5 mph - N/A   Clear
6:15 AM 53.6 °F 46.4 °F 77% 30.30 in - North 3.5 mph - N/A   Clear
6:35 AM 51.8 °F 46.4 °F 82% 30.31 in - Calm Calm - N/A   Clear
6:55 AM 51.8 °F 46.4 °F 82% 30.32 in - Calm Calm - N/A   Clear
7:15 AM 55.4 °F 48.2 °F 77% 30.32 in - Calm Calm - N/A   Clear
7:35 AM 57.2 °F 48.2 °F 72% 30.33 in - Calm Calm - N/A   Clear
7:55 AM 57.2 °F 50.0 °F 77% 30.34 in - Calm Calm - N/A   Clear
8:15 AM 57.2 °F 51.8 °F 82% 30.34 in - Calm Calm - N/A   Clear
8:35 AM 60.8 °F 51.8 °F 72% 30.35 in - Calm Calm - N/A   Clear
8:55 AM 62.6 °F 51.8 °F 68% 30.35 in - Calm Calm - N/A   Clear
9:15 AM 64.4 °F 51.8 °F 64% 30.36 in - Calm Calm - N/A   Clear
9:35 AM 64.4 °F 51.8 °F 64% 30.35 in - Calm Calm - N/A   Clear
9:55 AM 66.2 °F 51.8 °F 60% 30.36 in - Calm Calm - N/A   Clear
10:15 AM 66.2 °F 51.8 °F 60% 30.36 in - SW 4.6 mph - N/A   Clear
10:35 AM 68.0 °F 51.8 °F 56% 30.35 in - WNW 3.5 mph - N/A   Clear
10:55 AM 69.8 °F 51.8 °F 53% 30.35 in - SSE 3.5 mph - N/A   Clear
11:15 AM 71.6 °F 51.8 °F 50% 30.35 in - North 3.5 mph - N/A   Clear
11:35 AM 71.6 °F 51.8 °F 50% 30.34 in - NW 4.6 mph - N/A   Clear
11:55 AM 73.4 °F 51.8 °F 47% 30.34 in - NE 4.6 mph - N/A   Clear
12:15 PM 75.2 °F 48.2 °F 38% 30.33 in - Calm Calm - N/A   Unknown
12:35 PM 78.8 °F 46.4 °F 32% 30.32 in - WNW 5.8 mph - N/A   Unknown
12:55 PM 78.8 °F 44.6 °F 30% 30.31 in 10.0 mi North 10.4 mph - N/A   Unknown
1:15 PM 80.6 °F 42.8 °F 26% 30.30 in 10.0 mi NNE 5.8 mph - N/A   Clear
1:35 PM 80.6 °F 42.8 °F 26% 30.29 in 10.0 mi NNE 8.1 mph - N/A   Clear
1:55 PM 80.6 °F 37.4 °F 21% 30.28 in 10.0 mi NNW 4.6 mph - N/A   Clear
2:15 PM 78.8 °F 41.0 °F 26% 30.28 in 10.0 mi WNW 6.9 mph - N/A Thunderstorm Partly Cloudy
2:35 PM 77.0 °F 42.8 °F 29% 30.28 in 10.0 mi NW 12.7 mph - N/A   Clear
2:55 PM 75.2 °F 42.8 °F 31% 30.29 in 10.0 mi NW 10.4 mph - N/A   Partly Cloudy
3:15 PM 78.8 °F 42.8 °F 28% 30.28 in 10.0 mi NW 9.2 mph - N/A   Partly Cloudy
3:35 PM 78.8 °F 42.8 °F 28% 30.27 in 10.0 mi NW 5.8 mph - N/A   Clear
3:55 PM 80.6 °F 41.0 °F 24% 30.26 in 10.0 mi WNW 9.2 mph - N/A   Clear
4:15 PM 78.8 °F 39.2 °F 24% 30.26 in 10.0 mi NW 6.9 mph - N/A   Clear
4:35 PM 78.8 °F 39.2 °F 24% 30.26 in 10.0 mi NW 9.2 mph - N/A   Clear
4:55 PM 77.0 °F 37.4 °F 24% 30.27 in 10.0 mi NW 9.2 mph - N/A   Clear
5:15 PM 77.0 °F 37.4 °F 24% 30.26 in 10.0 mi ESE 4.6 mph - N/A   Clear
5:35 PM 75.2 °F 42.8 °F 31% 30.26 in 10.0 mi ESE 6.9 mph - N/A   Clear
5:55 PM 75.2 °F 42.8 °F 31% 30.26 in 10.0 mi ESE 12.7 mph - N/A   Clear
6:15 PM 75.2 °F 44.6 °F 34% 30.26 in 10.0 mi ESE 11.5 mph - N/A   Clear
6:35 PM 75.2 °F 44.6 °F 34% 30.25 in 10.0 mi ESE 9.2 mph - N/A   Clear
6:55 PM 77.0 °F 44.6 °F 32% 30.25 in 10.0 mi ESE 8.1 mph - N/A   Clear
7:15 PM 73.4 °F 42.8 °F 33% 30.25 in 10.0 mi SE 8.1 mph - N/A   Clear
7:35 PM 71.6 °F 42.8 °F 35% 30.25 in 10.0 mi ESE 6.9 mph - N/A   Clear
7:55 PM 68.0 °F 44.6 °F 43% 30.26 in 10.0 mi ESE 8.1 mph - N/A   Clear
8:15 PM 66.2 °F 44.6 °F 46% 30.27 in 10.0 mi Calm Calm - N/A   Clear
8:35 PM 66.2 °F 44.6 °F 46% 30.28 in 10.0 mi Calm Calm - N/A   Clear
8:55 PM 64.4 °F 44.6 °F 49% 30.29 in 10.0 mi East 5.8 mph - N/A   Clear
9:15 PM 62.6 °F 42.8 °F 48% 30.29 in 10.0 mi ESE 6.9 mph - N/A   Clear
9:35 PM 62.6 °F 42.8 °F 48% 30.30 in 10.0 mi East 6.9 mph - N/A   Clear
9:55 PM 60.8 °F 42.8 °F 52% 30.31 in 10.0 mi East 6.9 mph - N/A   Clear
10:15 PM 59.0 °F 42.8 °F 55% 30.32 in 10.0 mi East 4.6 mph - N/A   Mostly Cloudy
10:35 PM 60.8 °F 42.8 °F 52% 30.31 in 10.0 mi SE 8.1 mph - N/A   Mostly Cloudy
11:15 PM 59.0 °F 42.8 °F 55% 30.31 in 10.0 mi East 8.1 mph - N/A   Clear
11:35 PM 59.0 °F 42.8 °F 55% 30.32 in 10.0 mi East 6.9 mph - N/A   Clear
11:55 PM 59.0 °F 42.8 °F 55% 30.31 in 10.0 mi East 4.6 mph - N/A   Clear